Location: Kerb�bon
(47.7970°N, 3.3487°W)
Time: 09:26:50
(UTC+00:00)

COSMOS 2406 - Pass Details

Date: 12 May 2021
Orbit: 844 x 862 km, 71.0° (Epoch: 20 June)

Event Time Altitude Azimuth Distance (km) Brightness Sun altitude
Rises 21:29:52 0° 329° (NNW) 3,415 8.2 -14.8°
Reaches altitude 10° 21:32:20 10° 326° (NW) 2,476 7.0 -15.0°
Maximum altitude 21:37:54 59° 248° (WSW) 977 3.6 -15.6°
Enters shadow 21:41:49 20° 175° (S) 1,877 4.5 -16.0°
